GW5802 Weather Reports


time (UTC)temp
C
wind
direction
speed
KPH
gust
KPH
rain 1hr
cm
rain 24hr
cm
rain mn
cm
humidity
%
barometer
mb
20260507021402 20 345 0.0 4.8 0.00 0.00 0.00 78 1009.2
20260507020900 20 321 1.6 1.6 0.00 0.00 0.00 78 1009.4
20260507020357 20 180 1.6 1.6 0.00 0.00 0.00 78 1009.5
20260507015854 20 244 4.8 4.8 0.00 0.00 0.00 78 1009.7
20260507015352 20 266 4.8 6.4 0.00 0.00 0.00 78 1009.8
20260507014849 20 247 0.0 3.2 0.00 0.00 0.00 78 1009.7
20260507014345 20 236 3.2 4.8 0.00 0.00 0.00 78 1009.6
20260507013841 20 358 0.0 1.6 0.00 0.00 0.00 78 1009.7
20260507013339 19 304 3.2 3.2 0.00 0.00 0.00 79 1009.6
20260507012836 19 336 0.0 1.6 0.00 0.00 0.00 79 1009.5
20260507012332 19 347 0.0 0.0 0.00 0.00 0.00 78 1009.5
20260507011829 19 5 0.0 0.0 0.00 0.00 0.00 78 1009.3
20260507011326 20 346 0.0 0.0 0.00 0.00 0.00 78 1009.7
20260507010825 20 347 0.0 1.6 0.00 0.00 0.00 77 1009.7
20260507010321 20 340 0.0 0.0 0.00 0.00 0.00 77 1009.7
20260507005819 20 342 0.0 1.6 0.00 0.00 0.00 76 1009.7
20260507005316 20 348 0.0 1.6 0.00 0.00 0.00 75 1009.4
20260507004812 20 332 0.0 1.6 0.00 0.00 0.00 75 1009.4
20260507004309 20 328 1.6 3.2 0.00 0.00 0.00 74 1009.4
20260507003806 20 208 1.6 3.2 0.00 0.00 0.00 74 1009.3
20260507003301 20 207 3.2 4.8 0.00 0.00 0.00 74 1009.3
20260507002757 20 264 4.8 6.4 0.00 0.00 0.00 73 1009.4
20260507002253 20 256 6.4 6.4 0.00 0.00 0.00 73 1009.0
20260507001750 21 273 3.2 3.2 0.00 0.00 0.00 73 1008.9
20260507001248 21 318 1.6 6.4 0.00 0.00 0.00 72 1009.3
20260507000744 21 304 6.4 12.9 0.00 0.00 0.00 72 1008.9
20260507000240 21 234 1.6 4.8 0.00 0.00 0.00 72 1009.0
20260506235737 21 8 3.2 4.8 0.00 0.00 0.00 72 1009.0
20260506235232 21 322 1.6 1.6 0.00 0.00 0.00 71 1008.9
20260506234729 21 307 1.6 4.8 0.00 0.00 0.00 71 1009.1
20260506234226 21 232 4.8 6.4 0.00 0.00 0.00 70 1008.9
20260506233724 21 252 6.4 9.7 0.00 0.00 0.00 70 1009.0
20260506233220 21 269 4.8 6.4 0.00 0.00 0.00 70 1008.9
20260506232717 21 314 3.2 4.8 0.00 0.00 0.00 69 1009.0
20260506232212 21 279 1.6 9.7 0.00 0.00 0.00 69 1008.6
20260506231709 21 238 8.0 14.5 0.00 0.00 0.00 69 1008.9
20260506231208 21 281 1.6 6.4 0.00 0.00 0.00 69 1008.9
20260506230704 22 198 6.4 9.7 0.00 0.00 0.00 68 1008.9
20260506230201 22 242 4.8 20.9 0.00 0.00 0.00 68 1009.0
20260506225657 22 256 3.2 6.4 0.00 0.00 0.00 68 1009.0
20260506225154 22 236 3.2 11.3 0.00 0.00 0.00 68 1008.9
20260506224651 22 233 3.2 11.3 0.00 0.00 0.00 67 1009.0
20260506224147 22 279 6.4 9.7 0.00 0.00 0.00 67 1008.8
20260506223644 22 291 6.4 20.9 0.00 0.00 0.00 67 1008.8
20260506223140 22 237 9.7 14.5 0.00 0.00 0.00 67 1008.9
20260506222637 22 238 6.4 16.1 0.00 0.00 0.00 67 1008.8
20260506222133 22 331 3.2 17.7 0.00 0.00 0.00 67 1008.9
20260506221631 22 251 6.4 11.3 0.00 0.00 0.00 67 1008.9
20260506221129 22 141 6.4 16.1 0.00 0.00 0.00 67 1009.1
20260506220625 22 210 4.8 11.3 0.00 0.00 0.00 67 1008.6
20260506220120 22 262 3.2 12.9 0.00 0.00 0.00 67 1008.7
20260506215617 22 192 6.4 16.1 0.00 0.00 0.00 67 1008.7
20260506215113 22 262 11.3 20.9 0.00 0.00 0.00 67 1008.9
20260506214610 22 237 6.4 17.7 0.00 0.00 0.00 67 1008.7
20260506214107 22 224 4.8 25.7 0.00 0.00 0.00 67 1008.5
20260506213605 22 219 11.3 14.5 0.00 0.00 0.00 68 1008.5
20260506213102 22 190 6.4 30.6 0.00 0.00 0.00 68 1008.5
20260506212559 22 152 6.4 12.9 0.00 0.00 0.00 68 1008.6
20260506212054 22 175 11.3 29.0 0.00 0.00 0.00 68 1008.6
20260506211550 22 186 11.3 16.1 0.00 0.00 0.00 68 1008.7
20260506211047 21 249 14.5 22.5 0.00 0.00 0.00 68 1008.4
20260506210544 21 248 17.7 27.4 0.00 0.00 0.00 68 1008.3
20260506210040 21 224 8.0 16.1 0.00 0.00 0.00 69 1008.5
20260506205537 21 195 14.5 22.5 0.00 0.00 0.00 68 1008.5
20260506205032 21 185 11.3 16.1 0.00 0.00 0.00 69 1008.6
20260506204531 21 242 9.7 16.1 0.00 0.00 0.00 69 1008.6
20260506204027 21 234 16.1 25.7 0.00 0.00 0.00 69 1008.6
20260506203526 21 201 4.8 16.1 0.00 0.00 0.00 69 1008.1
20260506203022 22 235 11.3 29.0 0.00 0.00 0.00 68 1008.2
20260506202519 22 221 14.5 22.5 0.00 0.00 0.00 68 1008.3
20260506202015 22 212 4.8 17.7 0.00 0.00 0.00 68 1008.3
20260506201514 22 202 6.4 12.9 0.00 0.00 0.00 68 1008.4
20260506201010 22 207 6.4 17.7 0.00 0.00 0.00 67 1008.9
20260506200506 22 244 9.7 24.1 0.00 0.00 0.00 67 1008.9
20260506200003 22 175 9.7 20.9 0.00 0.00 0.00 67 1009.0
20260506195500 22 238 11.3 16.1 0.00 0.00 0.00 67 1009.2
20260506194956 22 214 11.3 29.0 0.00 0.00 0.00 66 1009.2
20260506194454 22 201 9.7 24.1 0.00 0.00 0.00 66 1008.6
20260506193950 22 214 11.3 16.1 0.00 0.00 0.00 66 1008.5
20260506193448 22 236 6.4 12.9 0.00 0.00 0.00 66 1008.5
20260506192944 22 260 6.4 20.9 0.00 0.00 0.00 67 1008.9
20260506192441 22 198 16.1 22.5 0.00 0.00 0.00 67 1009.0
20260506191937 22 259 8.0 16.1 0.00 0.00 0.00 67 1009.0
20260506191434 22 177 9.7 29.0 0.00 0.00 0.00 67 1009.2
20260506190931 22 212 12.9 35.4 0.00 0.00 0.00 66 1009.4
20260506190427 22 288 9.7 20.9 0.00 0.00 0.00 67 1009.5
20260506185924 22 264 14.5 22.5 0.00 0.00 0.00 67 1009.5
20260506185422 21 222 8.0 17.7 0.00 0.00 0.00 68 1009.3
20260506184919 21 197 19.3 29.0 0.00 0.00 0.00 68 1009.4
20260506184416 21 252 11.3 16.1 0.00 0.00 0.00 69 1009.6
20260506183913 21 190 12.9 25.7 0.00 0.00 0.00 69 1009.7
20260506183408 21 237 8.0 22.5 0.00 0.00 0.00 71 1009.7
20260506182905 21 246 8.0 20.9 0.00 0.00 0.00 71 1009.6
20260506182403 21 264 6.4 14.5 0.00 0.00 0.00 72 1009.9
20260506181900 21 252 20.9 27.4 0.00 0.00 0.00 72 1009.9
20260506181358 20 215 6.4 22.5 0.00 0.00 0.00 73 1010.1
20260506180855 20 184 4.8 17.7 0.00 0.00 0.00 74 1010.0
20260506180350 20 249 14.5 24.1 0.00 0.00 0.00 73 1010.2
20260506175847 20 213 14.5 20.9 0.00 0.00 0.00 74 1010.2
20260506175344 20 213 8.0 14.5 0.00 0.00 0.00 74 1010.2
20260506174841 20 232 8.0 17.7 0.00 0.00 0.00 74 1010.0
20260506174338 20 251 8.0 12.9 0.00 0.00 0.00 73 1010.0
20260506173836 21 240 14.5 29.0 0.00 0.00 0.00 72 1010.1
20260506173332 21 183 8.0 17.7 0.00 0.00 0.00 72 1010.1
20260506172830 21 189 4.8 11.3 0.00 0.00 0.00 73 1010.2
20260506172326 21 166 8.0 24.1 0.00 0.00 0.00 72 1010.5
20260506171824 21 204 6.4 14.5 0.00 0.00 0.00 71 1010.7
20260506171321 21 196 8.0 14.5 0.00 0.00 0.00 72 1010.3
20260506170819 20 179 8.0 17.7 0.00 0.00 0.00 72 1010.3
20260506170314 20 245 6.4 12.9 0.00 0.00 0.00 72 1010.6
20260506165813 20 135 8.0 16.1 0.00 0.00 0.00 71 1010.7
20260506165310 20 263 8.0 16.1 0.00 0.00 0.00 69 1011.0
20260506164807 20 194 6.4 20.9 0.00 0.00 0.00 68 1011.1
20260506164304 20 334 6.4 16.1 0.00 0.00 0.00 68 1011.2
20260506163800 21 250 14.5 35.4 0.00 0.00 0.00 68 1011.2
20260506163255 21 195 11.3 30.6 0.00 0.00 0.00 65 1011.4
20260506162752 22 183 11.3 24.1 0.00 0.00 0.00 63 1011.5
20260506162250 22 188 11.3 35.4 0.00 0.00 0.00 60 1011.6
20260506161747 22 170 6.4 16.1 0.00 0.00 0.00 60 1011.6
20260506161244 22 259 16.1 24.1 0.00 0.00 0.00 58 1011.5
20260506160741 23 243 11.3 27.4 0.00 0.00 0.00 58 1011.1
20260506160238 23 221 20.9 30.6 0.00 0.00 0.00 57 1011.4
20260506155736 23 197 9.7 14.5 0.00 0.00 0.00 57 1011.6
20260506155233 23 221 6.4 6.4 0.00 0.00 0.00 57 1011.9
20260506153340 23 200 17.7 29.0 0.00 0.00 0.00 57 1011.6
20260506152837 23 190 4.8 20.9 0.00 0.00 0.00 57 1011.6
20260506152334 23 210 9.7 27.4 0.00 0.00 0.00 57 1011.6
20260506151833 22 185 16.1 35.4 0.00 0.00 0.00 57 1011.7
20260506151329 22 264 8.0 12.9 0.00 0.00 0.00 58 1011.7
20260506150826 22 230 9.7 30.6 0.00 0.00 0.00 59 1011.6
20260506150323 22 231 9.7 17.7 0.00 0.00 0.00 59 1012.0
20260506145820 22 217 8.0 14.5 0.00 0.00 0.00 59 1011.7
20260506145316 22 187 9.7 20.9 0.00 0.00 0.00 59 1011.7
20260506144814 22 238 4.8 20.9 0.00 0.00 0.00 58 1011.9
20260506144310 23 237 11.3 17.7 0.00 0.00 0.00 58 1011.7
20260506143809 22 171 8.0 20.9 0.00 0.00 0.00 57 1011.7
20260506143305 23 237 14.5 25.7 0.00 0.00 0.00 57 1011.7
20260506142804 23 147 6.4 17.7 0.00 0.00 0.00 57 1011.9
20260506142301 22 181 6.4 24.1 0.00 0.00 0.00 59 1011.7
20260506141759 22 202 12.9 22.5 0.00 0.00 0.00 58 1011.6
20260506141257 23 214 16.1 25.7 0.00 0.00 0.00 56 1011.9
20260506140755 23 187 16.1 25.7 0.00 0.00 0.00 57 1011.9
20260506140251 23 218 9.7 27.4 0.00 0.00 0.00 58 1011.6
20260506135749 22 259 12.9 20.9 0.00 0.00 0.00 59 1011.5
20260506135245 22 258 11.3 20.9 0.00 0.00 0.00 59 1011.8
20260506134742 22 159 8.0 14.5 0.00 0.00 0.00 60 1011.7
20260506134238 22 170 14.5 35.4 0.00 0.00 0.00 60 1011.9
20260506133735 22 176 9.7 17.7 0.00 0.00 0.00 60 1012.1
20260506133232 21 223 11.3 22.5 0.00 0.00 0.00 61 1012.1
20260506132729 22 229 8.0 27.4 0.00 0.00 0.00 61 1012.0
20260506132226 21 245 11.3 22.5 0.00 0.00 0.00 61 1012.1
20260506131724 21 183 8.0 20.9 0.00 0.00 0.00 62 1012.1
20260506131219 21 194 17.7 27.4 0.00 0.00 0.00 61 1012.1
20260506130717 21 200 8.0 12.9 0.00 0.00 0.00 61 1012.1
20260506130214 21 261 6.4 14.5 0.00 0.00 0.00 64 1012.1
20260506125712 20 238 6.4 16.1 0.00 0.00 0.00 65 1012.3
20260506125209 20 267 3.2 11.3 0.00 0.00 0.00 66 1012.3
20260506124707 20 281 8.0 11.3 0.00 0.00 0.00 67 1012.3
20260506124205 20 250 8.0 12.9 0.00 0.00 0.00 68 1012.4
20260506123702 20 197 6.4 6.4 0.00 0.00 0.00 68 1012.4
20260506123201 20 175 1.6 4.8 0.00 0.00 0.00 69 1012.4
20260506122657 20 210 4.8 9.7 0.00 0.00 0.00 69 1012.3
20260506122155 20 213 11.3 22.5 0.00 0.00 0.00 69 1012.3
20260506121652 20 205 6.4 12.9 0.00 0.00 0.00 68 1012.1
20260506121148 20 193 4.8 9.7 0.00 0.00 0.00 69 1012.3
20260506120647 19 247 8.0 11.3 0.00 0.00 0.00 70 1012.3
20260506120143 18 190 8.0 14.5 0.00 0.00 0.00 71 1012.2
20260506115642 18 173 4.8 11.3 0.00 0.00 0.00 72 1012.3
20260506115140 18 297 3.2 9.7 0.00 0.00 0.00 73 1012.1
20260506114637 18 86 3.2 14.5 0.00 0.00 0.00 73 1012.4
20260506114135 18 198 6.4 9.7 0.00 0.00 0.00 73 1012.3
20260506113633 18 173 4.8 11.3 0.00 0.00 0.00 73 1012.2
20260506113130 18 213 4.8 12.9 0.00 0.00 0.00 73 1012.3
20260506112626 18 160 3.2 12.9 0.00 0.00 0.00 73 1012.1
20260506112124 18 158 3.2 17.7 0.00 0.00 0.00 72 1012.2
20260506111621 18 246 8.0 16.1 0.00 0.00 0.00 72 1011.9
20260506111119 18 227 4.8 11.3 0.00 0.00 0.00 73 1012.0
20260506110616 17 197 9.7 12.9 0.00 0.00 0.00 74 1012.1
20260506110113 17 206 4.8 11.3 0.00 0.00 0.00 74 1012.3
20260506105609 17 208 6.4 11.3 0.00 0.00 0.00 75 1012.2
20260506105107 17 49 4.8 12.9 0.00 0.00 0.00 75 1012.2
20260506104605 17 185 8.0 12.9 0.00 0.00 0.00 76 1012.3
20260506104102 17 171 4.8 6.4 0.00 0.00 0.00 76 1012.4
20260506103559 17 52 4.8 9.7 0.00 0.00 0.00 76 1012.5
20260506103056 16 225 4.8 14.5 0.00 0.00 0.00 77 1012.5
20260506102554 16 246 4.8 12.9 0.00 0.00 0.00 77 1012.5
20260506102051 16 264 6.4 11.3 0.00 0.00 0.00 78 1012.4
20260506101548 16 180 4.8 6.4 0.00 0.00 0.00 78 1012.7
20260506101045 16 184 6.4 9.7 0.00 0.00 0.00 78 1012.2
20260506100543 16 328 3.2 4.8 0.00 0.00 0.00 78 1012.2
20260506100041 16 173 1.6 12.9 0.00 0.00 0.00 78 1012.1
20260506095540 16 235 4.8 11.3 0.00 0.00 0.00 78 1012.1
20260506095035 16 234 1.6 9.7 0.00 0.00 0.00 78 1012.0
20260506094533 16 191 1.6 6.4 0.00 0.00 0.00 78 1012.2
20260506094031 16 204 1.6 6.4 0.00 0.00 0.00 78 1012.3
20260506093529 16 329 3.2 4.8 0.00 0.00 0.00 78 1012.3
20260506093026 16 199 6.4 6.4 0.00 0.00 0.00 78 1012.4
20260506092524 16 205 3.2 6.4 0.00 0.00 0.00 78 1012.4
20260506092020 16 158 1.6 9.7 0.00 0.00 0.00 78 1012.1
20260506091519 16 199 4.8 9.7 0.00 0.00 0.00 78 1012.0
20260506091016 16 116 3.2 6.4 0.00 0.00 0.00 78 1012.3
20260506090514 16 238 4.8 6.4 0.00 0.00 0.00 78 1012.2
20260506090010 16 278 0.0 3.2 0.00 0.00 0.00 78 1012.4
20260506085507 16 319 1.6 9.7 0.00 0.00 0.00 78 1012.2
20260506085003 16 351 3.2 6.4 0.00 0.00 0.00 78 1012.2
20260506084500 16 237 3.2 11.3 0.00 0.00 0.00 78 1012.4
20260506083956 16 232 6.4 11.3 0.00 0.00 0.00 79 1012.5
20260506083453 16 2 1.6 4.8 0.00 0.00 0.00 78 1012.4
20260506082950 16 36 1.6 4.8 0.00 0.00 0.00 78 1012.4
20260506082448 16 198 4.8 9.7 0.00 0.00 0.00 79 1012.5
20260506081943 16 245 4.8 9.7 0.00 0.00 0.00 79 1012.4
20260506081442 16 220 4.8 6.4 0.00 0.00 0.00 78 1012.5
20260506080939 16 184 3.2 6.4 0.00 0.00 0.00 78 1012.6
20260506080436 17 170 6.4 9.7 0.00 0.00 0.00 78 1012.5
20260506073420 17 201 4.8 9.7 0.00 0.00 0.00 77 1012.4
20260506072917 17 204 4.8 6.4 0.00 0.00 0.00 77 1012.3
20260506072414 17 263 6.4 9.7 0.00 0.00 0.00 77 1012.3
20260506071912 17 277 6.4 11.3 0.00 0.00 0.00 76 1012.3
20260506071410 17 346 3.2 3.2 0.00 0.00 0.00 76 1012.1
20260506070906 17 182 3.2 12.9 0.00 0.00 0.00 76 1012.5
20260506070403 17 181 3.2 11.3 0.00 0.00 0.00 76 1012.2
20260506062340 18 231 6.4 17.7 0.00 0.00 0.00 74 1012.5
20260506061836 18 233 3.2 17.7 0.00 0.00 0.00 74 1012.6
20260506061333 18 310 3.2 24.1 0.00 0.00 0.00 74 1012.5
20260506060831 18 235 3.2 11.3 0.00 0.00 0.00 74 1012.5
20260506060329 18 152 4.8 11.3 0.00 0.00 0.00 74 1012.6
20260506051300 18 165 4.8 9.7 0.00 0.00 0.00 74 1013.0
20260506050758 18 167 3.2 6.4 0.00 0.00 0.00 73 1012.9
20260506050256 18 201 3.2 9.7 0.00 0.00 0.00 74 1013.1
20260506044746 18 316 1.6 9.7 0.00 0.00 0.00 73 1013.1
20260506044243 18 65 4.8 9.7 0.00 0.00 0.00 73 1013.0
20260506043741 18 145 4.8 12.9 0.00 0.00 0.00 73 1013.2
20260506043238 18 251 4.8 11.3 0.00 0.00 0.00 73 1013.0
20260506042737 18 202 3.2 6.4 0.00 0.00 0.00 73 1013.1
20260506042235 18 202 8.0 11.3 0.00 0.00 0.00 72 1012.9
20260506041733 18 198 8.0 17.7 0.00 0.00 0.00 72 1013.0
20260506041230 18 285 6.4 16.1 0.00 0.00 0.00 72 1012.9
20260506040727 18 134 9.7 14.5 0.00 0.00 0.00 72 1012.8
20260506040224 18 316 3.2 6.4 0.00 0.00 0.00 72 1013.0
20260506035721 19 211 4.8 17.7 0.00 0.00 0.00 72 1012.9
20260506035218 19 220 6.4 14.5 0.00 0.00 0.00 71 1012.9
20260506034714 19 129 8.0 9.7 0.00 0.00 0.00 71 1013.1
20260506034212 19 257 4.8 12.9 0.00 0.00 0.00 71 1012.9
20260506033709 19 226 8.0 12.9 0.00 0.00 0.00 71 1013.3
20260506033206 19 187 9.7 16.1 0.00 0.00 0.00 71 1013.0
20260506032703 19 185 6.4 9.7 0.00 0.00 0.00 70 1013.0
20260506032200 19 204 6.4 11.3 0.00 0.00 0.00 70 1013.1
20260506031656 20 274 4.8 20.9 0.00 0.00 0.00 70 1012.9
20260506031154 19 240 6.4 14.5 0.00 0.00 0.00 70 1013.0
20260506030652 19 207 6.4 14.5 0.00 0.00 0.00 70 1013.0
20260506030149 20 249 8.0 12.9 0.00 0.00 0.00 70 1013.1
20260506025646 20 179 4.8 4.8 0.00 0.00 0.00 69 1012.9
20260506025142 20 220 8.0 16.1 0.00 0.00 0.00 69 1013.1
20260506024640 20 30 1.6 9.7 0.00 0.00 0.00 69 1013.1
20260506024136 20 186 6.4 20.9 0.00 0.00 0.00 69 1013.1
20260506023632 20 111 9.7 27.4 0.00 0.00 0.00 69 1013.0
20260506023129 20 201 4.8 17.7 0.00 0.00 0.00 69 1013.0
20260506022627 20 247 8.0 17.7 0.00 0.00 0.00 69 1013.4
20260506022124 20 212 4.8 17.7 0.00 0.00 0.00 68 1013.0
20260506021621 20 233 8.0 16.1 0.00 0.00 0.00 68 1013.2